Simultaneous Nadir Overpasses (SNOs) Predictions

Prediction of SNOs between GOES-15 and METOP-B Satellite Orbit:

Table of predicted SNOs for the next 14.0 days since TLE Epoch: 9/5/2025
Index Date Time (GOES-15) GOES-15 Lat,Lon METOP-B Lat,Lon Distance(km) Time Diff (sec)
1 09/06/2025 04:37:39 0.27, 61.39 -0.66, 65.51 469.76 80
2 09/07/2025 16:59:22 -0.33, 61.47 -0.43, 60.89 65.04 80
3 09/10/2025 04:57:37 0.34, 61.33 0.36, 61.29 5.25 80
4 09/12/2025 16:53:22 -0.36, 61.41 -0.31, 61.64 26.27 80
5 09/14/2025 05:14:56 0.42, 61.30 1.35, 57.06 482.99 80
6 09/15/2025 04:51:38 0.38, 61.30 0.21, 62.03 83.98 80
7 09/16/2025 17:13:19 -0.44, 61.40 -1.33, 57.43 452.61 80
8 09/17/2025 16:50:02 -0.40, 61.40 -0.19, 62.40 114.27 80
9 09/19/2025 05:11:35 0.45, 61.29 1.23, 57.82 395.39 80
